Location: Dallas
(32.7833°N, 96.8000°W)
Time: 14:21:43
(UTC-06:00)

Envisat - Pass Details

Date: 12 December 2021
Orbit: 764 x 766 km, 98.2° (Epoch: 18 January)

Event Time Altitude Azimuth Distance (km) Brightness Sun altitude
Rises 06:17:47 0° 356° (N) 3,234 6.0 -12.9°
Reaches altitude 10° 06:20:28 10° 343° (NNW) 2,304 5.1 -12.4°
Maximum altitude 06:24:29 24° 291° (WNW) 1,541 4.0 -11.6°
Drops below altitude 10° 06:28:28 10° 238° (WSW) 2,293 5.1 -10.8°
Sets 06:31:09 0° 225° (SW) 3,215 6.0 -10.3°
